Find Starlink 11120

NORAD ID: 60042 Int'l Des: 2024-112 Owner: SPXS Country: US Constellation: starlink operational
LEOCIRCULAR

Live Position

Loading 3D Globe...

About Starlink 11120

Description loading...

Upcoming Passes

Passes for default location (London). Set your location on the main map for personalized predictions.

Altitude History

Loading altitude history...

Two-Line Element Set

1 60042U 24112E 26105.96191951 -.00000010 00000-0 47730-5 0 9995
2 60042 53.1592 82.6317 0001039 80.3351 279.7784 15.69709593106835
Epoch: Apr 15, 2026 • Age: 12 hours

Current Status

Altitude 364.0 km
Velocity 7.70 km/s
Sub-Earth Point 46.25°N, 112.8°E
Launch Date Jun 8, 2024
Age 1.8 years
Type internet

Technical Details

Classification Payload
Mass 960.00 kg
Dry Mass 910.00 kg
Total Mass 960.00 kg
Length 0.30 m
Diameter 4.10 m
Span 29.00 m
Shape Box + pan
Manufacturer SPXS
Bus Type Starlink V2MD
Phase Status In Orbit
Owner/State SPXS/US

Most Searched